Home > Weather > Karachi > Past weeks

Flag for Pakistan Weather for the Past 2 Weeks in Karachi, Sindh, Pakistan

Now
84 °F

Clear.


Feels Like: 81 °F
Forecast: 60 / 82 °F
Wind: 3 mph from Northwest

Location: Karachi Airport

Current Time: Feb 7, 2016 at 2:16:51 PM

Latest Report: Feb 7, 2016 at 1:30 PM


Visibility: 4 mi

Pressure: 30.01 "Hg

Humidity: 10%

Dew point: 23 °F

Location of KarachiLocation

Historic Weather in Karachi — Graph

°F

Karachi Temperature Yesterday

Maximum temperature yesterday: 84 °F (at 3:00 PM)
Minimum temperature yesterday: 57 °F (at 7:55 AM)
Average temperature yesterday: 70 °F

High & Low Weather Summary for the Past Weeks

 TemperatureHumidityPressure
High84 °F (Feb 6, 3:00 PM)94% (Jan 30, 2:55 AM)30.15 "Hg (Jan 30, 2:55 AM)
Low54 °F (Feb 4, 6:25 AM)10% (Feb 6, 3:00 PM)29.86 "Hg (Feb 6, 2:25 AM)
Average70 °F53%30.01 "Hg
* Reported Jan 23 1:25 PM — Feb 7 1:00 PM, Karachi, Weather by CustomWeather, © 2016

Note: Actual official high and low records may vary slightly from our data, if they occured in-between our weather recording intervals... More about our weather records

Advertising

Karachi Weather History for the Previous 24 Hours

 ConditionsComfort  
Time TempWeatherWind HumidityBarometerVisibility
1:00 PM
Sun, Feb 7
84 °FClear.5 mph13%30.04 "Hg4 mi
12:30 PM82 °FClear.3 mph13%30.04 "Hg4 mi
12:00 PM81 °FClear.7 mph15%30.07 "Hg4 mi
11:25 AM79 °FClear.7 mph16%30.07 "Hg4 mi
10:55 AM77 °FClear.3 mph22%30.07 "Hg4 mi
10:25 AM73 °FHaze.5 mph27%30.07 "Hg3 mi
9:55 AM70 °FHaze.7 mph27%30.07 "Hg3 mi
9:25 AM66 °FHaze.7 mph32%30.04 "Hg3 mi
8:55 AM63 °FHaze.3 mph39%30.04 "Hg3 mi
7:55 AM54 °FClear.No wind63%30.01 "Hg3 mi
7:25 AM54 °FClear.No wind63%29.98 "Hg3 mi
4:55 AM55 °FClear.3 mph59%29.95 "Hg4 mi
3:55 AM57 °FClear.No wind55%29.95 "Hg4 mi
3:25 AM57 °FClear.12 mph55%29.95 "Hg4 mi
2:55 AM59 °FClear.12 mph51%29.95 "Hg4 mi
1:55 AM61 °FClear.3 mph48%29.95 "Hg4 mi
1:25 AM61 °FClear.No wind52%29.95 "Hg4 mi
12:55 AM61 °FClear.No wind52%29.95 "Hg4 mi
12:25 AM63 °FClear.5 mph45%29.95 "Hg4 mi
11:55 PM
Sat, Feb 6
63 °FClear.5 mph45%29.95 "Hg4 mi
11:25 PM64 °FClear.No wind43%29.95 "Hg4 mi
10:55 PM64 °FClear.6 mph43%29.95 "Hg4 mi
10:25 PM64 °FClear.6 mph43%29.95 "Hg4 mi
9:55 PM68 °FClear.5 mph38%29.95 "Hg4 mi
9:25 PM68 °FClear.3 mph38%29.95 "Hg4 mi
8:55 PM70 °FClear.9 mph38%29.92 "Hg4 mi
8:25 PM70 °FClear.5 mph38%29.92 "Hg4 mi
7:55 PM72 °FClear.7 mph36%29.89 "Hg4 mi
7:25 PM73 °FClear.7 mph33%29.89 "Hg4 mi
6:55 PM73 °FClear.9 mph33%29.89 "Hg4 mi
6:25 PM75 °FClear.10 mph31%29.86 "Hg4 mi
5:55 PM77 °FClear.9 mph28%29.86 "Hg4 mi
5:25 PM79 °FClear.14 mph24%29.86 "Hg5 mi
4:55 PM81 °FClear.15 mph18%29.86 "Hg5 mi
4:25 PM81 °FClear.14 mph23%29.86 "Hg5 mi
3:30 PM84 °FClear.7 mph10%29.86 "Hg5 mi
3:00 PM84 °FClear.6 mph10%29.86 "Hg5 mi
Weather by CustomWeather, © 2016

See weather overviewHow to use our weather pages